Regional Weather Roundup
Issued by NWS Sterling, VA

Home | Current Version | Previous Version | Graphics & Text | Print | Product List | Glossary On
Versions: 1 2 3 4 5 6 7 8 9 10 11 12 13 14 15 16 17 18 19 20 21 22 23 24 25 26 27 28 29 30 31 32 33 34 35 36 37 38 39 40 41 42 43 44 45 46 47 48 49 50
640
ASUS41 KLWX 250711
RWRLWX

REGIONAL WEATHER ROUNDUP
NATIONAL WEATHER SERVICE BALTIMORE MD/WASHINGTON DC
300 AM EDT SAT MAR 25 2017

Note: "FAIR" indicates few or no clouds below 12,000 feet
with no significant weather and/or obstructions to visibility.
 TC=TEMPERATURE CELSIUS

 * =Non NWS site. Station does not report precipitation (e.g. rain,
    snow, etc.), thunder, or fog.

DCZ001-MDZ009-015-VAZ040>042-051-053>054-250800-
WASHINGTON METRO

CITY           SKY/WX    TMP DP  RH WIND       PRES   REMARKS
WASHINGTON NAT MOCLDY    57  48  72 S12       30.16F
DULLES         CLOUDY    59  45  59 S12       30.15F
ANDREWS AFB    CLOUDY    60  46  59 SW10      30.15F
FT BELVOIR     CLOUDY    60  46  59 S3        30.16S
QUANTICO       CLOUDY    64  48  56 SW10G18   30.17F
COLLEGE PARK*  MOCLDY    55  45  67 CALM      30.15S
LEESBURG*      CLOUDY    59  50  72 SW6       30.15S
MANASSAS*      MOCLDY    56  46  69 CALM      30.17F

$$

MDZ006>007-011-014-250800-
BALTIMORE METRO

CITY           SKY/WX    TMP DP  RH WIND       PRES   REMARKS
BWI AIRPORT    CLOUDY    60  47  61 SW10      30.13F
MD SCIENCE CTR   N/A     58  44  60 MISG      30.14F
MARTIN STATE   CLOUDY    46  45  93 CALM      30.15S
ANNAPOLIS      CLOUDY    63  47  55 SW6       30.14F
FORT MEADE*    CLOUDY    57  45  62 SW8       30.16F

$$

MDZ012-015-019>023-250800-
MARYLAND EASTERN SHORE

CITY           SKY/WX    TMP DP  RH WIND       PRES   REMARKS
OCEAN CITY     CLEAR     52  45  77 SW5       30.21F
SALISBURY      CLEAR     59  48  67 SW13      30.19F
BAY BRIDGE AP* MOCLDY    61  46  59 SW10      30.15F
CAMBRIDGE*     CLEAR     57  46  67 S8        30.18F
EASTON*        PTCLDY    58  47  65 SW9       30.20F

$$

MDZ017>025-250800-
SOUTHERN MARYLAND

CITY           SKY/WX    TMP DP  RH WIND       PRES   REMARKS
PATUXENT RIVER CLOUDY    60  50  69 SW13G20   30.19F
ST INIGOES     CLOUDY    59  47  64 S9        30.20F
LEONARDTOWN*   CLOUDY    59  46  63 SW8       30.20F

$$

MDZ003>005-250800-
NORTH CENTRAL MARYLAND

CITY           SKY/WX    TMP DP  RH WIND       PRES   REMARKS
FREDERICK*     CLOUDY    52  46  82 CALM      30.16S
HAGERSTOWN APT CLOUDY    56  45  66 S7        30.13S
WESTMINSTER*   MOCLDY    59  46  63 SW8       30.13F

$$

MDZ501>502-250800-
WESTERN MARYLAND

CITY           SKY/WX    TMP DP  RH WIND       PRES   REMARKS
OAKLAND*       CLOUDY    59  45  58 SW13G22   30.20S
CUMBERLAND*    CLOUDY    63  46  55 CALM      30.17R

$$

VAZ025>031-250800-
SHENANDOAH VALLEY

CITY           SKY/WX    TMP DP  RH WIND       PRES   REMARKS
WINCHESTER*    CLOUDY    61  45  55 SW10G17   30.14F
FRONT ROYAL*     N/A    N/A N/A N/A MISG        N/A
LURAY*         CLOUDY    61  48  63 S9        30.18S
NEW MARKET*    CLOUDY    58  45  61 SW9       30.18S
STAUNTON*      MOCLDY    57  46  67 SW8       30.21F
WAYNESBORO*    CLOUDY    58  48  68 W6        30.21F

$$

WVZ021-048>050-054>055-250800-
EASTERN WEST VIRGINIA PANHANDLE

CITY           SKY/WX    TMP DP  RH WIND       PRES   REMARKS
MARTINSBURG    MOCLDY    61  45  55 S3        30.13S
PETERSBURG*    CLOUDY    59  48  67 CALM      30.15S

$$

VAZ036>039-050-250800-
CENTRAL FOOTHILLS

CITY           SKY/WX    TMP DP  RH WIND       PRES   REMARKS
CHARLOTTESVILL CLOUDY    60  47  61 S8        30.19F
CULPEPER*      PTCLDY    60  48  64 S5        30.17F
ORANGE*        CLOUDY    59  45  58 SW10      30.20F
GORDONSVILLE*  PTCLDY    59  47  66 W5        30.18F
WARRENTON*     CLOUDY    61  43  52 S6        30.16F

$$

VAZ055>057-250800-
NORTH AND CENTRAL PIEDMONT

CITY           SKY/WX    TMP DP  RH WIND       PRES   REMARKS
FREDERICKSBRG* CLOUDY    60  48  64 S3        30.18F
STAFFORD*      CLOUDY    61  47  60 SW6       30.21F

$$

NCZ024-NYZ072-PAZ021-071-VAZ022-071-250800-
OTHER REGIONAL OBSERVATIONS

CITY           SKY/WX    TMP DP  RH WIND       PRES   REMARKS
NEW YORK CITY  MOCLDY    53  34  48 W9G17     30.10S
PITTSBURGH     CLOUDY    65  52  62 W5        30.12S
ROANOKE        CLOUDY    60  46  59 W8        30.26F
RICHMOND       CLOUDY    55  47  74 S8        30.24F
RALEIGH        MOCLDY    58  48  69 SW14      30.33S

$$

ANZ530>537-250800-
MARINE OBSERVATIONS

STATION/POSITION TIME  TEMP    WIND        PRES
                       AIR SEA DIR/SP/G
                 (UTC) (F)     (DEG/KT/KT) (MB)
THOMAS PT LIGHT  0700   60 44  220/ 11/ 12   N/A
BALT KEY BRIDGE  0648          230/ 12/ 15 1020.2F
COVE POINT       0648          240/ 16/ 21 1022.6F
LEWISETTA        0648      47  230/ 12/ 14 1022.8F
SOLOMONS ISLAND  0648      45  230/ 10/ 14   N/A
PINEY POINT      0648          230/ 10/ 10   N/A

$$





USA.gov is the U.S. government's official web portal to all federal, state and local government web resources and services.